sat.trackr.live / text

‹ back to catalog

STARLINK-5888

NORAD 56348 · 2023-058AH

PAYLOAD ACTIVE UNKNOWN

§ Identity

Operator
Country
US
Launch date
2023-04-27
Launch site
AFWTR
Launch vehicle
Mass (kg)
RCS (m²)

Purposes: comms

External: N2YO · Heavens-Above · Gunter

§ Orbital elements

Epoch: 2026-09-20T22:00:03.000096Z

Period
94.47 min
Inclination
97.2853°
Eccentricity
0.0001585
Mean motion
15.24329614 rev/d
Perigee alt
491.7 km
Apogee alt
493.9 km
Semi-major
6,870.9 km
B*
3.0410e-2
RAAN
257.7905°
Arg perigee
85.9938°
Mean anomaly
33.8807°
Rev number
574

§ Raw data

STARLINK-58881 56348U 23058AH  26263.91670139  .00804354  00000+0  30410-1 0  99912 56348  97.2853 257.7905 0001585  85.9938  33.8807 15.24329614  5740

JSON: /api/v1/satellites/56348 · /tle

For live sub-satellite position, see the globe view (requires WebGL).

§ Visibility from observer

Set your observer location to see the next 7 days of passes ≥ 10°. The values pass through the URL so the page stays shareable.

No JS? Fill the form by hand. The geolocation button needs JavaScript.